Sparta, TN

1:56 AM CST on December 09, 2019 (GMT -0600)
Upper Cumberland Regional

Weather History for KSRB - October, 2019

Change the Weather History Date:

Friday, October 25, 2019

  Actual Average (KCSV) Record (KCSV)
Temperature  
Mean Temperature 50 °F -  
Max Temperature 59 °F 62 °F 78 °F (1963)
Min Temperature 42 °F 43 °F 21 °F (1955)
Degree Days  
Heating Degree Days 14    
Moisture  
Dew Point 51 °F    
Average Humidity 93    
Maximum Humidity 100    
Minimum Humidity 72    
Precipitation  
Precipitation 1.10 in - - ()
Sea Level Pressure  
Sea Level Pressure 30.19 in    
Wind  
Wind Speed 1 mph ()    
Max Wind Speed 12 mph    
Max Gust Speed -    
Visibility 7.2 miles    
Events      
Averages and records for this station are not official NWS values.
T = Trace of Precipitation, MM = Missing Value Source: Averaged Metar Reports

Daily Weather History Graph

Daily Weather History Graph

Search for Another Location

Airport or City:

Astronomy

Oct. 25, 2019 Rise Set
Actual Time 6:57 AM CDT 5:54 PM CDT
Civil Twilight 6:31 AM CDT 6:20 PM CDT
Nautical Twilight 6:01 AM CDT 6:50 PM CDT
Astronomical Twilight 5:31 AM CDT 7:19 PM CDT
Moon 3:48 AM CDT (10/25) 4:48 PM CDT (10/25)
Length of Visible Light 11h 48m
Length of Day
10h 56m
Waning Crescent, 9% of the Moon is Illuminated
Oct 25
Waning Crescent
Oct 27
New
Nov 4
First Quarter
Nov 12
Full
Nov 19
Last Quarter

Hourly Weather History & Observations

Time (CDT) Temp. Dew Point Humidity Pressure Visibility Wind Dir Wind Speed Gust Speed Precip Events Conditions
12:15 AM 42.8 °F 41.0 °F 93% 30.25 in 10.0 mi Calm Calm - N/A   Clear
12:35 AM 42.8 °F 42.8 °F 100% 30.24 in 10.0 mi Calm Calm - N/A   Clear
12:55 AM 44.6 °F 42.8 °F 93% 30.24 in 10.0 mi Calm Calm - N/A   Clear
1:30 AM 44.6 °F 42.8 °F 93% 30.24 in 10.0 mi Calm Calm - N/A   Clear
1:55 AM 44.6 °F 42.8 °F 93% 30.24 in 10.0 mi Calm Calm - N/A   Clear
2:15 AM 42.8 °F 42.8 °F 100% 30.24 in 10.0 mi Calm Calm - N/A   Clear
2:55 AM 42.8 °F 42.8 °F 100% 30.24 in 10.0 mi Calm Calm - N/A   Clear
3:15 AM 42.8 °F 42.8 °F 100% 30.23 in 10.0 mi Calm Calm - N/A   Clear
3:35 AM 42.8 °F 42.8 °F 100% 30.23 in 10.0 mi Calm Calm - N/A   Clear
3:55 AM 44.6 °F 42.8 °F 93% 30.24 in 10.0 mi Calm Calm - N/A   Partly Cloudy
4:15 AM 42.8 °F 42.8 °F 100% 30.23 in 10.0 mi Calm Calm - N/A   Scattered Clouds
4:35 AM 44.6 °F 42.8 °F 93% 30.23 in 10.0 mi Calm Calm - N/A   Overcast
4:50 AM 44.6 °F 42.8 °F 93% 30.24 in 10.0 mi Calm Calm - N/A   Overcast
5:15 AM 46.4 °F 44.6 °F 93% 30.24 in 10.0 mi Calm Calm - N/A   Overcast
5:35 AM 46.4 °F 44.6 °F 93% 30.24 in 10.0 mi Calm Calm - N/A   Overcast
5:55 AM 46.4 °F 46.4 °F 100% 30.23 in 10.0 mi Calm Calm - N/A   Overcast
6:15 AM 48.2 °F 46.4 °F 93% 30.23 in 10.0 mi Calm Calm - N/A   Overcast
6:35 AM 48.2 °F 46.4 °F 93% 30.23 in 10.0 mi Calm Calm - N/A   Overcast
6:55 AM 48.2 °F 46.4 °F 93% 30.23 in 10.0 mi Calm Calm - N/A   Overcast
7:35 AM 50.0 °F 46.4 °F 87% 30.23 in 10.0 mi Calm Calm - N/A   Overcast
7:55 AM 50.0 °F 48.2 °F 94% 30.24 in 10.0 mi Calm Calm - N/A   Mostly Cloudy
8:15 AM 51.8 °F 48.2 °F 88% 30.24 in 10.0 mi Calm Calm - N/A   Partly Cloudy
8:35 AM 51.8 °F 48.2 °F 88% 30.24 in 10.0 mi Calm Calm - N/A   Clear
8:55 AM 53.6 °F 48.2 °F 82% 30.24 in 10.0 mi ENE 3.5 mph - N/A   Scattered Clouds
9:15 AM 55.4 °F 50.0 °F 82% 30.24 in 10.0 mi Calm Calm - N/A   Mostly Cloudy
9:35 AM 57.2 °F 48.2 °F 72% 30.25 in 10.0 mi Calm Calm - N/A   Overcast
9:55 AM 55.4 °F 51.8 °F 88% 30.24 in 10.0 mi Calm Calm - N/A   Overcast
10:15 AM 57.2 °F 51.8 °F 82% 30.24 in 10.0 mi Calm Calm - N/A   Scattered Clouds
10:35 AM 57.2 °F 53.6 °F 88% 30.24 in 10.0 mi Calm Calm - N/A   Scattered Clouds
10:55 AM 57.2 °F 53.6 °F 88% 30.25 in 9.0 mi Calm Calm - N/A   Mostly Cloudy
11:15 AM 59.0 °F 53.6 °F 82% 30.25 in 7.0 mi Calm Calm - N/A   Scattered Clouds
11:35 AM 59.0 °F 53.6 °F 82% 30.25 in 9.0 mi Calm Calm - N/A   Clear
11:50 AM 57.2 °F 53.6 °F 88% 30.25 in 7.0 mi Calm Calm - N/A   Clear
12:15 PM 57.2 °F 51.8 °F 82% 30.24 in 6.0 mi SE 4.6 mph - N/A   Haze
12:35 PM 55.4 °F 51.8 °F 88% 30.22 in 6.0 mi ESE 5.8 mph - N/A   Clear
12:55 PM 55.4 °F 51.8 °F 88% 30.19 in 6.0 mi East 6.9 mph - 0.05 in   Clear
1:15 PM 55.4 °F 51.8 °F 88% 30.17 in 8.0 mi ENE 5.8 mph - N/A   Clear
1:35 PM 55.4 °F 53.6 °F 94% 30.17 in 8.0 mi Calm Calm - N/A   Clear
1:55 PM 55.4 °F 53.6 °F 94% 30.16 in 10.0 mi Calm Calm - 0.03 in   Scattered Clouds
2:15 PM 57.2 °F 53.6 °F 88% 30.16 in 7.0 mi Calm Calm - N/A   Scattered Clouds
2:30 PM 57.2 °F 53.6 °F 88% 30.16 in 7.0 mi East 3.5 mph - N/A   Clear
2:55 PM 55.4 °F 53.6 °F 94% 30.16 in 4.0 mi Calm Calm - 0.04 in   Partly Cloudy
3:15 PM 55.4 °F 51.8 °F 88% 30.16 in 3.0 mi Calm Calm - N/A   Mostly Cloudy
3:35 PM 55.4 °F 51.8 °F 88% 30.17 in 2.5 mi Calm Calm - N/A   Mostly Cloudy
3:55 PM 55.4 °F 51.8 °F 88% 30.17 in 3.0 mi ENE 4.6 mph - 0.13 in   Mostly Cloudy
4:15 PM 53.6 °F 53.6 °F 100% 30.17 in 3.0 mi Calm Calm - N/A   Mostly Cloudy
4:35 PM 53.6 °F 53.6 °F 100% 30.17 in 2.5 mi Calm Calm - N/A   Mostly Cloudy
4:55 PM 55.4 °F 53.6 °F 94% 30.18 in 3.0 mi Calm Calm - 0.14 in   Mostly Cloudy
5:15 PM 55.4 °F 53.6 °F 94% 30.19 in 2.5 mi SW 3.5 mph - N/A   Overcast
5:35 PM 53.6 °F 53.6 °F 100% 30.18 in 3.0 mi Calm Calm - N/A   Overcast
5:50 PM 55.4 °F 53.6 °F 94% 30.16 in 2.5 mi ENE 8.1 mph - N/A   Overcast
6:15 PM 55.4 °F 53.6 °F 94% 30.15 in 6.0 mi East 4.6 mph - N/A   Overcast
6:35 PM 55.4 °F 53.6 °F 94% 30.16 in 4.0 mi Calm Calm - N/A   Overcast
6:55 PM 55.4 °F 53.6 °F 94% 30.16 in 4.0 mi Calm Calm - 0.09 in   Overcast
7:15 PM 55.4 °F 55.4 °F 100% 30.13 in 3.0 mi Variable 3.5 mph - N/A   Overcast
7:35 PM 55.4 °F 55.4 °F 100% 30.13 in 7.0 mi Variable 4.6 mph - N/A   Mostly Cloudy
7:55 PM 55.4 °F 55.4 °F 100% 30.12 in 7.0 mi NE 4.6 mph - 0.13 in   Overcast
8:15 PM 55.4 °F 55.4 °F 100% 30.12 in 8.0 mi Calm Calm - N/A   Overcast
8:35 PM 57.2 °F 55.4 °F 94% 30.12 in 4.0 mi SSW 4.6 mph - N/A   Overcast
8:55 PM 55.4 °F 55.4 °F 100% 30.12 in 3.0 mi Calm Calm - 0.04 in   Overcast
9:35 PM 57.2 °F 55.4 °F 94% 30.11 in 3.0 mi Calm Calm - N/A   Overcast
9:55 PM 57.2 °F 57.2 °F 100% 30.11 in 4.0 mi Calm Calm - 0.08 in   Overcast
10:15 PM 57.2 °F 57.2 °F 100% 30.11 in 2.0 mi Calm Calm - N/A   Overcast
10:35 PM 57.2 °F 57.2 °F 100% 30.10 in 4.0 mi Calm Calm - N/A   Mostly Cloudy
10:55 PM 57.2 °F 57.2 °F 100% 30.10 in 5.0 mi Calm Calm - 0.17 in   Overcast
11:15 PM 59.0 °F 57.2 °F 94% 30.08 in 3.0 mi ESE 11.5 mph - N/A   Overcast
11:35 PM 59.0 °F 57.2 °F 94% 30.07 in 9.0 mi Calm Calm - N/A   Overcast
11:55 PM 59.0 °F 57.2 °F 94% 30.06 in 3.0 mi East 4.6 mph - 0.20 in   Overcast